Time,TemperatureF,DewpointF,PressureIn,WindDirection,WindDirectionDegrees,WindSpeedMPH,WindSpeedGustMPH,Humidity,HourlyPrecipIn,Conditions,Clouds,dailyrainin,SoftwareType,DateUTC
2013-01-07 07:40:00,32.4,11.3,29.09,North,357,0.0,0.0,41,0.00,,OVC046,0.00,VWS V14.01,2013-01-07 12:40:00,
2013-01-07 07:41:00,32.2,11.1,29.09,North,357,0.0,0.0,41,0.00,,OVC046,0.00,VWS V14.01,2013-01-07 12:41:00,
2013-01-07 07:46:00,32.2,11.1,29.09,WNW,291,2.7,2.7,41,0.00,,OVC046,0.00,VWS V14.01,2013-01-07 12:46:00,
2013-01-07 07:51:00,32.0,11.5,29.09,WNW,291,0.0,0.0,42,0.00,,OVC046,0.00,VWS V14.01,2013-01-07 12:51:00,
2013-01-07 07:56:00,31.8,11.4,29.09,WNW,291,0.0,0.0,42,0.00,,OVC046,0.00,VWS V14.01,2013-01-07 12:56:00,
2013-01-07 08:01:00,31.8,11.4,29.09,WNW,291,0.0,0.0,42,0.00,,CLR,0.00,VWS V14.01,2013-01-07 13:01:00,
2013-01-07 08:06:00,32.2,11.7,29.09,WNW,291,0.0,0.0,42,0.00,,CLR,0.00,VWS V14.01,2013-01-07 13:06:00,
2013-01-07 08:11:00,32.4,11.9,29.09,WNW,290,0.0,0.0,42,0.00,,CLR,0.00,VWS V14.01,2013-01-07 13:11:00,
2013-01-07 08:16:00,32.4,11.3,29.12,West,259,0.0,0.0,41,0.00,,CLR,0.00,VWS V14.01,2013-01-07 13:16:00,
2013-01-07 08:21:00,32.5,11.5,29.12,West,259,0.0,0.0,41,0.00,,CLR,0.00,VWS V14.01,2013-01-07 13:21:00,
2013-01-07 08:26:00,33.3,12.1,29.12,West,260,0.0,0.0,41,0.00,,CLR,0.00,VWS V14.01,2013-01-07 13:26:00,
2013-01-07 08:31:00,33.8,12.1,29.12,WNW,301,0.0,0.0,40,0.00,,CLR,0.00,VWS V14.01,2013-01-07 13:31:00,
2013-01-07 08:36:00,34.3,12.5,29.12,West,279,3.1,3.1,40,0.00,,CLR,0.00,VWS V14.01,2013-01-07 13:36:00,
2013-01-07 08:42:00,34.5,12.7,29.12,WNW,282,0.0,0.0,40,0.00,,CLR,0.00,VWS V14.01,2013-01-07 13:42:00,
2013-01-07 08:47:00,34.9,12.4,29.15,SSW,204,5.4,5.4,39,0.00,,CLR,0.00,VWS V14.01,2013-01-07 13:47:00,
2013-01-07 08:52:00,35.2,12.2,29.15,West,268,3.1,3.1,38,0.00,,CLR,0.00,VWS V14.01,2013-01-07 13:52:00,
2013-01-07 08:57:00,35.6,11.9,29.15,West,269,0.0,0.0,37,0.00,,CLR,0.00,VWS V14.01,2013-01-07 13:57:00,
2013-01-07 09:02:00,35.8,10.8,29.15,WSW,252,0.0,0.0,35,0.00,,CLR,0.00,VWS V14.01,2013-01-07 14:02:00,
2013-01-07 09:07:00,36.0,11.0,29.15,NW,326,2.7,2.7,35,0.00,,CLR,0.00,VWS V14.01,2013-01-07 14:07:00,
2013-01-07 09:12:00,36.3,10.6,29.15,NNW,340,0.0,0.0,34,0.00,,CLR,0.00,VWS V14.01,2013-01-07 14:12:00,
2013-01-07 09:17:00,36.5,10.8,29.12,NNW,330,0.0,0.0,34,0.00,,CLR,0.00,VWS V14.01,2013-01-07 14:17:00,
2013-01-07 09:22:00,36.7,11.0,29.12,WNW,285,2.7,2.7,34,0.00,,CLR,0.00,VWS V14.01,2013-01-07 14:22:00,
2013-01-07 09:27:00,36.9,11.1,29.12,West,261,2.7,2.7,34,0.00,,CLR,0.00,VWS V14.01,2013-01-07 14:27:00,
2013-01-07 09:32:00,37.2,10.8,29.15,NW,326,0.0,0.0,33,0.00,,CLR,0.00,VWS V14.01,2013-01-07 14:32:00,
2013-01-07 09:37:00,37.6,11.1,29.15,WSW,249,3.6,3.6,33,0.00,,CLR,0.00,VWS V14.01,2013-01-07 14:37:00,
2013-01-07 09:42:00,37.6,11.1,29.15,WSW,246,2.2,3.6,33,0.00,,CLR,0.00,VWS V14.01,2013-01-07 14:42:00,
2013-01-07 09:48:00,37.9,10.7,29.15,WNW,300,0.0,0.0,32,0.00,,CLR,0.00,VWS V14.01,2013-01-07 14:48:00,
2013-01-07 09:53:00,38.1,10.9,29.15,WNW,288,0.0,0.0,32,0.00,,CLR,0.00,VWS V14.01,2013-01-07 14:53:00,
2013-01-07 09:58:00,38.5,11.2,29.15,NNE,21,2.2,2.2,32,0.00,,CLR,0.00,VWS V14.01,2013-01-07 14:58:00,
2013-01-07 10:03:00,38.8,11.5,29.15,NNE,21,2.2,2.2,32,0.00,,CLR,0.00,VWS V14.01,2013-01-07 15:03:00,
2013-01-07 10:08:00,39.4,11.3,29.15,West,272,3.6,3.6,31,0.00,,CLR,0.00,VWS V14.01,2013-01-07 15:08:00,
2013-01-07 10:13:00,39.4,12.0,29.15,SSW,202,2.2,2.2,32,0.00,,CLR,0.00,VWS V14.01,2013-01-07 15:13:00,
2013-01-07 10:18:00,39.7,11.6,29.18,WSW,257,4.9,4.9,31,0.00,,CLR,0.00,VWS V14.01,2013-01-07 15:18:00,
2013-01-07 10:23:00,40.5,12.2,29.18,SW,233,0.0,0.0,31,0.00,,CLR,0.00,VWS V14.01,2013-01-07 15:23:00,
2013-01-07 10:28:00,40.8,12.5,29.18,NNE,16,2.2,2.7,31,0.00,,CLR,0.00,VWS V14.01,2013-01-07 15:28:00,
2013-01-07 10:33:00,40.8,12.5,29.18,WSW,245,5.4,5.4,31,0.00,,CLR,0.00,VWS V14.01,2013-01-07 15:33:00,
2013-01-07 10:38:00,41.5,12.4,29.18,ENE,60,0.0,3.6,30,0.00,,CLR,0.00,VWS V14.01,2013-01-07 15:38:00,
2013-01-07 10:43:00,41.5,12.4,29.18,West,263,4.9,4.9,30,0.00,,CLR,0.00,VWS V14.01,2013-01-07 15:43:00,
2013-01-07 10:49:00,41.7,12.6,29.18,NNW,331,2.7,4.9,30,0.00,,CLR,0.00,VWS V14.01,2013-01-07 15:49:00,
2013-01-07 10:53:00,41.2,12.1,29.18,WSW,249,2.7,4.0,30,0.00,,CLR,0.00,VWS V14.01,2013-01-07 15:53:00,
2013-01-07 10:59:00,41.7,12.6,29.18,North,357,2.7,2.7,30,0.00,,CLR,0.00,VWS V14.01,2013-01-07 15:59:00,
2013-01-07 11:04:00,40.8,11.8,29.15,East,92,2.2,2.7,30,0.00,,CLR,0.00,VWS V14.01,2013-01-07 16:04:00,
2013-01-07 11:09:00,41.2,12.1,29.15,East,92,2.2,2.2,30,0.00,,CLR,0.00,VWS V14.01,2013-01-07 16:09:00,
2013-01-07 11:14:00,41.7,12.6,29.15,WNW,286,4.9,4.9,30,0.00,,CLR,0.00,VWS V14.01,2013-01-07 16:14:00,
2013-01-07 11:19:00,41.9,12.0,29.15,NNE,31,0.0,2.7,29,0.00,,CLR,0.00,VWS V14.01,2013-01-07 16:19:00,
2013-01-07 11:24:00,41.7,12.6,29.15,South,184,3.1,3.1,30,0.00,,CLR,0.00,VWS V14.01,2013-01-07 16:24:00,
2013-01-07 11:29:00,42.1,12.1,29.15,NNW,334,0.0,2.7,29,0.00,,CLR,0.00,VWS V14.01,2013-01-07 16:29:00,
2013-01-07 11:34:00,42.1,12.1,29.15,NE,40,2.2,2.2,29,0.00,,CLR,0.00,VWS V14.01,2013-01-07 16:34:00,
2013-01-07 11:39:00,41.9,12.0,29.15,NE,43,3.1,3.1,29,0.00,,CLR,0.00,VWS V14.01,2013-01-07 16:39:00,
2013-01-07 11:44:00,43.2,13.1,29.15,SSW,213,0.0,0.0,29,0.00,,CLR,0.00,VWS V14.01,2013-01-07 16:44:00,
2013-01-07 11:49:00,43.3,13.2,29.15,SSW,213,0.0,0.0,29,0.00,,CLR,0.00,VWS V14.01,2013-01-07 16:49:00,
2013-01-07 11:54:00,42.8,12.8,29.15,South,187,4.0,4.0,29,0.00,,CLR,0.00,VWS V14.01,2013-01-07 16:54:00,
2013-01-07 11:59:00,43.0,12.9,29.15,SSW,197,0.0,0.0,29,0.00,,CLR,0.00,VWS V14.01,2013-01-07 16:59:00,
2013-01-07 12:04:00,44.1,13.9,29.12,South,189,3.1,3.1,29,0.00,,CLR,0.00,VWS V14.01,2013-01-07 17:04:00,
2013-01-07 12:09:00,44.2,14.0,29.12,SW,219,2.7,3.1,29,0.00,,CLR,0.00,VWS V14.01,2013-01-07 17:09:00,
2013-01-07 12:14:00,45.1,14.0,29.12,South,185,0.0,0.0,28,0.00,,CLR,0.00,VWS V14.01,2013-01-07 17:14:00,
2013-01-07 12:19:00,45.1,14.0,29.12,SW,222,0.0,0.0,28,0.00,,CLR,0.00,VWS V14.01,2013-01-07 17:19:00,
2013-01-07 12:24:00,44.4,14.2,29.12,NW,305,0.0,3.6,29,0.00,,CLR,0.00,VWS V14.01,2013-01-07 17:24:00,
2013-01-07 12:29:00,44.8,13.7,29.12,NW,305,0.0,0.0,28,0.00,,CLR,0.00,VWS V14.01,2013-01-07 17:29:00,
2013-01-07 12:34:00,45.3,14.1,29.12,NW,305,0.0,0.0,28,0.00,,CLR,0.00,VWS V14.01,2013-01-07 17:34:00,
2013-01-07 12:39:00,45.0,13.8,29.12,NE,56,3.6,3.6,28,0.00,,CLR,0.00,VWS V14.01,2013-01-07 17:39:00,
2013-01-07 12:44:00,44.2,13.2,29.12,NE,53,4.0,4.0,28,0.00,,CLR,0.00,VWS V14.01,2013-01-07 17:44:00,
2013-01-07 12:49:00,44.2,14.0,29.12,ENE,77,2.7,2.7,29,0.00,,CLR,0.00,VWS V14.01,2013-01-07 17:49:00,
2013-01-07 12:54:00,45.5,14.3,29.12,SSW,204,3.1,3.1,28,0.00,,CLR,0.00,VWS V14.01,2013-01-07 17:54:00,
2013-01-07 12:59:00,46.2,14.9,29.12,NE,39,3.1,3.1,28,0.00,,CLR,0.00,VWS V14.01,2013-01-07 17:59:00,
2013-01-07 13:04:00,46.0,14.8,29.09,East,96,0.0,2.2,28,0.00,,CLR,0.00,VWS V14.01,2013-01-07 18:04:00,
2013-01-07 13:09:00,45.0,13.8,29.09,North,7,2.2,2.2,28,0.00,,CLR,0.00,VWS V14.01,2013-01-07 18:09:00,
2013-01-07 13:14:00,45.0,13.8,29.09,North,7,2.2,2.2,28,0.00,,CLR,0.00,VWS V14.01,2013-01-07 18:14:00,
2013-01-07 13:19:00,45.0,13.8,29.09,SSW,193,2.2,2.2,28,0.00,,CLR,0.00,VWS V14.01,2013-01-07 18:19:00,
2013-01-07 13:24:00,47.8,15.5,29.09,SSW,195,2.7,2.7,27,0.00,,CLR,0.00,VWS V14.01,2013-01-07 18:24:00,
2013-01-07 13:29:00,48.9,16.4,29.09,West,268,2.2,2.7,27,0.00,,CLR,0.00,VWS V14.01,2013-01-07 18:29:00,
2013-01-07 13:34:00,47.5,15.2,29.09,NE,48,0.0,3.1,27,0.00,,CLR,0.00,VWS V14.01,2013-01-07 18:34:00,
2013-01-07 13:39:00,47.3,15.0,29.09,West,267,0.0,2.2,27,0.00,,CLR,0.00,VWS V14.01,2013-01-07 18:39:00,
2013-01-07 13:44:00,46.8,14.6,29.09,NE,44,5.4,5.4,27,0.00,,CLR,0.00,VWS V14.01,2013-01-07 18:44:00,
2013-01-07 13:49:00,46.4,14.2,29.09,SW,215,0.0,2.7,27,0.00,,CLR,0.00,VWS V14.01,2013-01-07 18:49:00,
2013-01-07 13:54:00,46.4,14.2,29.09,ENE,64,2.7,2.7,27,0.00,,CLR,0.00,VWS V14.01,2013-01-07 18:54:00,
2013-01-07 13:59:00,46.9,14.7,29.09,ESE,120,3.6,3.6,27,0.00,,CLR,0.00,VWS V14.01,2013-01-07 18:59:00,
2013-01-07 14:04:00,47.1,14.9,29.09,NE,37,4.0,4.0,27,0.00,,CLR,0.00,VWS V14.01,2013-01-07 19:04:00,
2013-01-07 14:09:00,46.6,14.4,29.09,NNW,348,4.0,4.0,27,0.00,,CLR,0.00,VWS V14.01,2013-01-07 19:09:00,
2013-01-07 14:14:00,47.1,14.9,29.09,NE,46,0.0,0.0,27,0.00,,CLR,0.00,VWS V14.01,2013-01-07 19:14:00,
2013-01-07 14:19:00,47.7,15.3,29.09,NE,39,0.0,0.0,27,0.00,,CLR,0.00,VWS V14.01,2013-01-07 19:19:00,
2013-01-07 14:24:00,47.3,15.0,29.09,ESE,113,0.0,2.2,27,0.00,,CLR,0.00,VWS V14.01,2013-01-07 19:24:00,
2013-01-07 14:29:00,47.3,15.0,29.09,ENE,75,2.2,2.2,27,0.00,,CLR,0.00,VWS V14.01,2013-01-07 19:29:00,
2013-01-07 14:35:00,47.1,14.9,29.09,NNE,30,2.7,2.7,27,0.00,,CLR,0.00,VWS V14.01,2013-01-07 19:35:00,
2013-01-07 14:40:00,47.3,15.0,29.09,NNE,27,0.0,0.0,27,0.00,,CLR,0.00,VWS V14.01,2013-01-07 19:40:00,
2013-01-07 14:45:00,47.1,14.9,29.09,NNW,330,0.0,3.1,27,0.00,,CLR,0.00,VWS V14.01,2013-01-07 19:45:00,
2013-01-07 14:50:00,47.3,15.0,29.09,NNE,23,2.2,4.0,27,0.00,,CLR,0.00,VWS V14.01,2013-01-07 19:50:00,
2013-01-07 14:55:00,47.1,14.9,29.09,NNW,328,2.7,2.7,27,0.00,,CLR,0.00,VWS V14.01,2013-01-07 19:55:00,
2013-01-07 15:00:00,46.9,14.7,29.09,NNW,331,0.0,0.0,27,0.00,,CLR,0.00,VWS V14.01,2013-01-07 20:00:00,
2013-01-07 15:05:00,47.7,15.3,29.09,East,98,2.2,2.2,27,0.00,,CLR,0.00,VWS V14.01,2013-01-07 20:05:00,
2013-01-07 15:10:00,47.3,15.0,29.09,ENE,65,0.0,0.0,27,0.00,,CLR,0.00,VWS V14.01,2013-01-07 20:10:00,
2013-01-07 15:16:00,47.8,15.5,29.09,East,83,2.2,2.7,27,0.00,,CLR,0.00,VWS V14.01,2013-01-07 20:16:00,
2013-01-07 15:19:00,48.2,14.9,29.09,East,89,0.0,0.0,26,0.00,,CLR,0.00,VWS V14.01,2013-01-07 20:19:00,
2013-01-07 15:24:00,48.2,14.9,29.09,East,79,2.7,2.7,26,0.00,,CLR,0.00,VWS V14.01,2013-01-07 20:24:00,
2013-01-07 15:29:00,48.0,15.6,29.09,NNE,22,3.6,3.6,27,0.00,,CLR,0.00,VWS V14.01,2013-01-07 20:29:00,
2013-01-07 15:34:00,48.0,15.6,29.09,NE,36,2.7,2.7,27,0.00,,CLR,0.00,VWS V14.01,2013-01-07 20:34:00,
2013-01-07 15:39:00,48.4,15.1,29.09,East,81,0.0,0.0,26,0.00,,CLR,0.00,VWS V14.01,2013-01-07 20:39:00,
2013-01-07 15:44:00,47.8,15.5,29.09,East,81,3.1,3.1,27,0.00,,CLR,0.00,VWS V14.01,2013-01-07 20:44:00,
2013-01-07 15:49:00,48.0,15.6,29.09,NNE,24,2.7,2.7,27,0.00,,CLR,0.00,VWS V14.01,2013-01-07 20:49:00,
2013-01-07 15:54:00,48.0,15.6,29.09,NE,36,0.0,0.0,27,0.00,,CLR,0.00,VWS V14.01,2013-01-07 20:54:00,
2013-01-07 16:00:00,47.8,15.5,29.09,ENE,65,0.0,0.0,27,0.00,,CLR,0.00,VWS V14.01,2013-01-07 21:00:00,
2013-01-07 16:05:00,47.7,15.3,29.09,NE,39,2.2,2.2,27,0.00,,CLR,0.00,VWS V14.01,2013-01-07 21:05:00,
2013-01-07 16:10:00,47.3,15.0,29.09,North,5,0.0,0.0,27,0.00,,CLR,0.00,VWS V14.01,2013-01-07 21:10:00,
2013-01-07 16:15:00,47.3,15.0,29.09,North,357,0.0,0.0,27,0.00,,CLR,0.00,VWS V14.01,2013-01-07 21:15:00,
2013-01-07 16:20:00,47.3,15.0,29.09,NE,46,3.6,3.6,27,0.00,,CLR,0.00,VWS V14.01,2013-01-07 21:20:00,
2013-01-07 16:25:00,47.3,15.0,29.09,NE,36,2.2,2.2,27,0.00,,CLR,0.00,VWS V14.01,2013-01-07 21:25:00,
2013-01-07 16:30:00,47.7,15.3,29.09,NE,39,0.0,0.0,27,0.00,,CLR,0.00,VWS V14.01,2013-01-07 21:30:00,
2013-01-07 16:35:00,47.7,15.3,29.09,ENE,73,2.2,2.2,27,0.00,,CLR,0.00,VWS V14.01,2013-01-07 21:35:00,
2013-01-07 16:40:00,47.5,15.2,29.09,NNE,30,2.7,2.7,27,0.00,,CLR,0.00,VWS V14.01,2013-01-07 21:40:00,
2013-01-07 16:45:00,47.1,14.9,29.09,NE,40,0.0,0.0,27,0.00,,CLR,0.00,VWS V14.01,2013-01-07 21:45:00,
2013-01-07 16:50:00,46.9,14.7,29.09,NE,40,0.0,0.0,27,0.00,,CLR,0.00,VWS V14.01,2013-01-07 21:50:00,
2013-01-07 16:55:00,46.2,14.1,29.09,NE,40,0.0,0.0,27,0.00,,CLR,0.00,VWS V14.01,2013-01-07 21:55:00,
2013-01-07 17:00:00,45.7,13.6,29.09,NE,40,0.0,0.0,27,0.00,,CLR,0.00,VWS V14.01,2013-01-07 22:00:00,
2013-01-07 17:05:00,45.1,13.2,29.09,NE,40,0.0,0.0,27,0.00,,CLR,0.00,VWS V14.01,2013-01-07 22:05:00,
2013-01-07 17:11:00,44.8,12.9,29.09,NE,40,0.0,0.0,27,0.00,,CLR,0.00,VWS V14.01,2013-01-07 22:11:00,
2013-01-07 17:16:00,44.4,13.4,29.09,NE,40,0.0,0.0,28,0.00,,CLR,0.00,VWS V14.01,2013-01-07 22:16:00,
2013-01-07 17:21:00,43.7,12.8,29.09,NE,41,0.0,0.0,28,0.00,,CLR,0.00,VWS V14.01,2013-01-07 22:21:00,
2013-01-07 17:26:00,42.8,12.0,29.09,NE,40,0.0,0.0,28,0.00,,CLR,0.00,VWS V14.01,2013-01-07 22:26:00,
2013-01-07 17:31:00,42.1,12.1,29.12,NE,40,0.0,0.0,29,0.00,,CLR,0.00,VWS V14.01,2013-01-07 22:31:00,
2013-01-07 17:36:00,41.5,11.7,29.12,NE,40,0.0,0.0,29,0.00,,CLR,0.00,VWS V14.01,2013-01-07 22:36:00,
2013-01-07 17:41:00,40.3,11.3,29.12,NE,40,0.0,0.0,30,0.00,,CLR,0.00,VWS V14.01,2013-01-07 22:41:00,
2013-01-07 17:46:00,39.7,10.9,29.12,North,0,0.0,0.0,30,0.00,,CLR,0.00,VWS V14.01,2013-01-07 22:46:00,
2013-01-07 17:51:00,39.0,11.0,29.12,North,0,0.0,0.0,31,0.00,,CLR,0.00,VWS V14.01,2013-01-07 22:51:00,
2013-01-07 17:56:00,38.8,11.5,29.12,North,0,0.0,0.0,32,0.00,,CLR,0.00,VWS V14.01,2013-01-07 22:56:00,
2013-01-07 18:01:00,38.3,11.0,29.12,North,0,0.0,0.0,32,0.00,,CLR,0.00,VWS V14.01,2013-01-07 23:01:00,
2013-01-07 18:07:00,37.9,11.4,29.12,North,0,0.0,0.0,33,0.00,,CLR,0.00,VWS V14.01,2013-01-07 23:07:00,
2013-01-07 18:12:00,38.1,11.6,29.12,North,0,0.0,0.0,33,0.00,,CLR,0.00,VWS V14.01,2013-01-07 23:12:00,
2013-01-07 18:17:00,37.6,11.1,29.12,North,0,0.0,0.0,33,0.00,,CLR,0.00,VWS V14.01,2013-01-07 23:17:00,
2013-01-07 18:22:00,37.2,12.1,29.12,North,0,0.0,0.0,35,0.00,,CLR,0.00,VWS V14.01,2013-01-07 23:22:00,
2013-01-07 18:27:00,36.9,11.8,29.12,North,0,0.0,0.0,35,0.00,,CLR,0.00,VWS V14.01,2013-01-07 23:27:00,
2013-01-07 18:32:00,36.5,12.1,29.12,North,0,0.0,0.0,36,0.00,,CLR,0.00,VWS V14.01,2013-01-07 23:32:00,
2013-01-07 18:37:00,36.3,12.6,29.12,North,0,0.0,0.0,37,0.00,,CLR,0.00,VWS V14.01,2013-01-07 23:37:00,
2013-01-07 18:42:00,36.1,12.4,29.12,North,0,0.0,0.0,37,0.00,,CLR,0.00,VWS V14.01,2013-01-07 23:42:00,
2013-01-07 18:47:00,35.8,12.7,29.12,North,0,0.0,0.0,38,0.00,,CLR,0.00,VWS V14.01,2013-01-07 23:47:00,
2013-01-07 18:52:00,35.6,12.5,29.12,North,0,0.0,0.0,38,0.00,,CLR,0.00,VWS V14.01,2013-01-07 23:52:00,
2013-01-07 18:57:00,35.4,13.5,29.12,North,0,0.0,0.0,40,0.00,,CLR,0.00,VWS V14.01,2013-01-07 23:57:00,
2013-01-07 19:02:00,35.2,13.4,29.12,North,0,0.0,0.0,40,0.00,,CLR,0.00,VWS V14.01,2013-01-08 00:02:00,
2013-01-07 19:07:00,35.1,13.2,29.12,North,0,0.0,0.0,40,0.00,,CLR,0.00,VWS V14.01,2013-01-08 00:07:00,
2013-01-07 19:12:00,35.1,13.2,29.12,North,0,0.0,0.0,40,0.00,,CLR,0.00,VWS V14.01,2013-01-08 00:12:00,
2013-01-07 19:17:00,34.7,12.9,29.12,North,0,0.0,0.0,40,0.00,,CLR,0.00,VWS V14.01,2013-01-08 00:17:00,
2013-01-07 19:22:00,34.3,12.5,29.12,North,0,0.0,0.0,40,0.00,,CLR,0.00,VWS V14.01,2013-01-08 00:22:00,
2013-01-07 19:27:00,34.2,12.4,29.12,North,0,0.0,0.0,40,0.00,,CLR,0.00,VWS V14.01,2013-01-08 00:27:00,
2013-01-07 19:32:00,34.0,12.8,29.12,North,0,0.0,0.0,41,0.00,,CLR,0.00,VWS V14.01,2013-01-08 00:32:00,
2013-01-07 19:38:00,33.8,12.6,29.12,North,0,0.0,0.0,41,0.00,,CLR,0.00,VWS V14.01,2013-01-08 00:38:00,
2013-01-07 19:43:00,33.8,12.6,29.12,North,0,0.0,0.0,41,0.00,,CLR,0.00,VWS V14.01,2013-01-08 00:43:00,
2013-01-07 19:48:00,33.6,12.4,29.12,North,0,0.0,0.0,41,0.00,,CLR,0.00,VWS V14.01,2013-01-08 00:48:00,
2013-01-07 19:53:00,33.4,12.8,29.12,North,0,0.0,0.0,42,0.00,,CLR,0.00,VWS V14.01,2013-01-08 00:53:00,
2013-01-07 19:58:00,33.1,12.5,29.12,North,0,0.0,0.0,42,0.00,,CLR,0.00,VWS V14.01,2013-01-08 00:58:00,
2013-01-07 20:03:00,32.7,12.2,29.12,North,0,0.0,0.0,42,0.00,,CLR,0.00,VWS V14.01,2013-01-08 01:03:00,
2013-01-07 20:08:00,32.7,12.7,29.12,North,0,0.0,0.0,43,0.00,,CLR,0.00,VWS V14.01,2013-01-08 01:08:00,
2013-01-07 20:13:00,32.5,12.5,29.12,North,0,0.0,0.0,43,0.00,,CLR,0.00,VWS V14.01,2013-01-08 01:13:00,
2013-01-07 20:18:00,32.2,12.2,29.15,North,0,0.0,0.0,43,0.00,,CLR,0.00,VWS V14.01,2013-01-08 01:18:00,
2013-01-07 20:23:00,32.0,12.6,29.15,North,0,0.0,0.0,44,0.00,,CLR,0.00,VWS V14.01,2013-01-08 01:23:00,
2013-01-07 20:28:00,31.8,12.4,29.15,North,0,0.0,0.0,44,0.00,,CLR,0.00,VWS V14.01,2013-01-08 01:28:00,
2013-01-07 20:33:00,31.6,12.2,29.12,North,0,0.0,0.0,44,0.00,,CLR,0.00,VWS V14.01,2013-01-08 01:33:00,
2013-01-07 20:38:00,31.8,12.4,29.12,North,0,0.0,0.0,44,0.00,,CLR,0.00,VWS V14.01,2013-01-08 01:38:00,
2013-01-07 20:43:00,31.5,12.6,29.12,North,0,0.0,0.0,45,0.00,,CLR,0.00,VWS V14.01,2013-01-08 01:43:00,
2013-01-07 20:48:00,31.3,12.4,29.12,North,0,0.0,0.0,45,0.00,,CLR,0.00,VWS V14.01,2013-01-08 01:48:00,
2013-01-07 20:53:00,30.9,12.6,29.12,North,0,0.0,0.0,46,0.00,,CLR,0.00,VWS V14.01,2013-01-08 01:53:00,
2013-01-07 20:59:00,30.9,12.6,29.12,North,0,0.0,0.0,46,0.00,,CLR,0.00,VWS V14.01,2013-01-08 01:59:00,
2013-01-07 21:04:00,30.7,12.9,29.12,North,0,0.0,0.0,47,0.00,,CLR,0.00,VWS V14.01,2013-01-08 02:04:00,
2013-01-07 21:09:00,30.7,12.9,29.12,North,0,0.0,0.0,47,0.00,,CLR,0.00,VWS V14.01,2013-01-08 02:09:00,
2013-01-07 21:14:00,30.4,12.6,29.12,North,0,0.0,0.0,47,0.00,,CLR,0.00,VWS V14.01,2013-01-08 02:14:00,
2013-01-07 21:19:00,30.4,13.1,29.12,North,0,0.0,0.0,48,0.00,,CLR,0.00,VWS V14.01,2013-01-08 02:19:00,
2013-01-07 21:24:00,30.2,13.4,29.12,North,0,0.0,0.0,49,0.00,,CLR,0.00,VWS V14.01,2013-01-08 02:24:00,
2013-01-07 21:29:00,30.0,13.2,29.12,North,0,0.0,0.0,49,0.00,,CLR,0.00,VWS V14.01,2013-01-08 02:29:00,
2013-01-07 21:34:00,30.0,13.2,29.12,North,0,0.0,0.0,49,0.00,,CLR,0.00,VWS V14.01,2013-01-08 02:34:00,
2013-01-07 21:39:00,29.8,13.5,29.12,North,0,0.0,0.0,50,0.00,,CLR,0.00,VWS V14.01,2013-01-08 02:39:00,
2013-01-07 21:44:00,29.7,13.3,29.12,North,0,0.0,0.0,50,0.00,,CLR,0.00,VWS V14.01,2013-01-08 02:44:00,
2013-01-07 21:49:00,29.5,13.1,29.12,North,0,0.0,0.0,50,0.00,,CLR,0.00,VWS V14.01,2013-01-08 02:49:00,
2013-01-07 21:54:00,29.5,13.1,29.12,North,0,0.0,0.0,50,0.00,,CLR,0.00,VWS V14.01,2013-01-08 02:54:00,
2013-01-07 21:59:00,29.3,13.4,29.12,North,0,0.0,0.0,51,0.00,,CLR,0.00,VWS V14.01,2013-01-08 02:59:00,
2013-01-07 22:04:00,29.3,13.4,29.12,North,0,0.0,0.0,51,0.00,,CLR,0.00,VWS V14.01,2013-01-08 03:04:00,
2013-01-07 22:09:00,28.9,13.1,29.12,North,0,0.0,0.0,51,0.00,,CLR,0.00,VWS V14.01,2013-01-08 03:09:00,
2013-01-07 22:14:00,28.9,13.1,29.12,SW,222,0.0,0.0,51,0.00,,CLR,0.00,VWS V14.01,2013-01-08 03:14:00,
2013-01-07 22:20:00,28.8,12.9,29.09,SW,223,0.0,0.0,51,0.00,,CLR,0.00,VWS V14.01,2013-01-08 03:20:00,
2013-01-07 22:25:00,28.6,13.2,29.09,West,262,0.0,0.0,52,0.00,,CLR,0.00,VWS V14.01,2013-01-08 03:25:00,
2013-01-07 22:30:00,28.6,13.2,29.09,West,262,0.0,0.0,52,0.00,,CLR,0.00,VWS V14.01,2013-01-08 03:30:00,
2013-01-07 22:35:00,28.6,13.6,29.12,West,262,0.0,0.0,53,0.00,,CLR,0.00,VWS V14.01,2013-01-08 03:35:00,
2013-01-07 22:40:00,28.8,13.8,29.12,West,261,0.0,0.0,53,0.00,,CLR,0.00,VWS V14.01,2013-01-08 03:40:00,
2013-01-07 22:45:00,28.6,13.2,29.12,West,262,0.0,0.0,52,0.00,,CLR,0.00,VWS V14.01,2013-01-08 03:45:00,
2013-01-07 22:50:00,28.6,13.2,29.12,West,262,0.0,0.0,52,0.00,,CLR,0.00,VWS V14.01,2013-01-08 03:50:00,
2013-01-07 22:55:00,28.2,13.3,29.12,West,262,0.0,0.0,53,0.00,,CLR,0.00,VWS V14.01,2013-01-08 03:55:00,
2013-01-07 23:00:00,28.0,13.1,29.12,West,262,0.0,0.0,53,0.00,,CLR,0.00,VWS V14.01,2013-01-08 04:00:00,